Flag for Gibraltar Weather past 2 weeks in Gibraltar, Gibraltar

Now
63 °F

Partly sunny.


Feels Like: 63 °F
Forecast: 57 / 60 °F
Wind: 15 mph from East

Location: Gibraltar Airport

Current Time: Dec 21, 2014 at 12:04:41 PM

Latest Report: Dec 21, 2014 at 10:50 AM


Visibility: N/A

Pressure: 30.45 "Hg

Humidity: 73%

Dew point: 54 °F

Location of GibraltarLocation

Historic Weather in Gibraltar — Graph

°F

Gibraltar temperature yesterday

Maximum temperature yesterday: 59 °F (at 1:50 PM)
Minimum temperature yesterday: 50 °F (at 5:50 AM)
Average temperature yesterday: 55 °F

Past Weeks' High & Low Weather Summary

 TemperatureHumidityPressure
High68 °F (Dec 13, 12:50 PM)100% (Dec 10, 2:50 AM)30.45 "Hg (Dec 10, 2:50 AM)
Low46 °F (Dec 8, 5:50 AM)32% (Dec 7, 2:50 PM)29.83 "Hg (Dec 14, 3:50 PM)
Average57 °F71%30.24 "Hg
* Reported Dec 6 10:50 AM — Dec 21 10:50 AM, Gibraltar, Weather by CustomWeather, © 2014

Note: Actual official high and low records may vary slightly from our data, if they occured in-between our weather recording intervals... More about our weather records

Advertising

Gibraltar weather history for previous 24 hours

 ConditionsComfort  
Time TempWeatherWind HumidityBarometerVisibility
10:50 AM
Dec 21
63 °FPartly sunny.15 mph73%30.45 "HgN/A
9:50 AM61 °FPartly sunny.14 mph77%30.45 "HgN/A
8:50 AM61 °FPartly sunny.15 mph77%30.42 "HgN/A
7:50 AM61 °FPassing clouds.16 mph77%30.42 "HgN/A
6:50 AM61 °FPassing clouds.12 mph83%30.42 "HgN/A
5:50 AM59 °FOvercast.14 mph82%30.39 "HgN/A
4:50 AM59 °FOvercast.12 mph82%30.42 "HgN/A
3:50 AM59 °FOvercast.13 mph82%30.42 "HgN/A
2:50 AM59 °FOvercast.16 mph72%30.42 "HgN/A
1:50 AM59 °FOvercast.14 mph72%30.42 "HgN/A
12:50 AM59 °FOvercast.15 mph72%30.45 "HgN/A
11:50 PM
Dec 20
59 °FOvercast.14 mph77%30.45 "HgN/A
10:50 PM59 °FOvercast.9 mph77%30.45 "Hg6 mi
9:50 PM57 °FPassing clouds.5 mph82%30.42 "Hg6 mi
8:50 PM55 °FPassing clouds.2 mph94%30.42 "Hg5 mi
7:50 PM55 °FPartly cloudy.5 mph94%30.42 "Hg6 mi
6:50 PM55 °FPassing clouds.6 mph88%30.39 "HgN/A
5:50 PM55 °FSunny.9 mph88%30.39 "Hg10 mi
4:50 PM57 °FSunny.8 mph82%30.39 "Hg10 mi
3:50 PM59 °FSunny.9 mph77%30.39 "Hg10 mi
2:50 PM59 °FSunny.8 mph72%30.39 "Hg10 mi
1:50 PM59 °FSunny.9 mph72%30.39 "Hg10 mi
12:50 PM57 °FSunny.9 mph77%30.42 "Hg10 mi
Weather by CustomWeather, © 2014

See weather overviewHow to use our weather pages